Location: B�rgermoos
(47.6500°N, 9.0667°E)
Time: 00:45:25
(UTC+00:00)

Tiros 1 - Pass Details

Date: 13 August 2021
Orbit: 630 x 663 km, 48.4° (Epoch: 16 September)

Event Time Altitude Azimuth Distance (km) Brightness Sun altitude
Rises 13:01:50 0° 229° (SW) 2,984 11.2 51.6°
Reaches altitude 10° 13:04:15 10° 223° (SW) 2,075 10.6 51.4°
Maximum altitude 13:08:48 44° 151° (SSE) 909 8.7 50.9°
Drops below altitude 10° 13:13:22 10° 80° (E) 2,080 9.6 50.4°
Sets 13:15:47 0° 74° (ENE) 2,992 10.2 50.1°
